Time,TemperatureF,DewpointF,PressureIn,WindDirection,WindDirectionDegrees,WindSpeedMPH,WindSpeedGustMPH,Humidity,HourlyPrecipIn,Conditions,Clouds,dailyrainin,SoftwareType,DateUTC
2013-09-19 00:01:00,74.5,65.3,29.98,NNE,13,13.0,14.0,73,0.00,,,0.00,VWS V14.01,2013-09-19 10:01:00,
2013-09-19 00:06:00,74.9,65.7,29.98,NE,49,7.0,11.0,73,0.00,,,0.00,VWS V14.01,2013-09-19 10:06:00,
2013-09-19 00:11:00,74.8,64.8,29.98,NNE,25,11.0,11.0,71,0.00,,,0.00,VWS V14.01,2013-09-19 10:11:00,
2013-09-19 00:16:00,74.9,65.3,29.98,NE,42,11.0,16.0,72,0.00,,,0.00,VWS V14.01,2013-09-19 10:16:00,
2013-09-19 00:21:00,75.0,64.6,29.98,North,9,16.0,17.0,70,0.00,,,0.00,VWS V14.01,2013-09-19 10:21:00,
2013-09-19 00:26:00,74.9,64.9,29.98,NNE,22,9.0,13.0,71,0.00,,,0.00,VWS V14.01,2013-09-19 10:26:00,
2013-09-19 00:31:00,74.9,64.5,29.98,NNE,19,15.0,18.0,70,0.00,,,0.00,VWS V14.01,2013-09-19 10:31:00,
2013-09-19 00:36:00,75.1,64.7,29.97,North,360,15.0,15.0,70,0.00,,,0.00,VWS V14.01,2013-09-19 10:36:00,
2013-09-19 00:41:00,75.0,64.6,29.98,NNE,14,13.0,16.0,70,0.00,,,0.00,VWS V14.01,2013-09-19 10:41:00,
2013-09-19 00:46:00,74.7,65.5,29.97,NNE,12,6.0,8.0,73,0.00,,,0.00,VWS V14.01,2013-09-19 10:46:00,
2013-09-19 00:52:00,74.5,66.1,29.97,NNE,16,8.0,10.0,75,0.00,,,0.00,VWS V14.01,2013-09-19 10:52:00,
2013-09-19 00:57:00,74.4,66.3,29.98,NE,42,14.0,14.0,76,0.00,,,0.00,VWS V14.01,2013-09-19 10:57:00,
2013-09-19 01:02:00,74.2,66.2,29.97,NNE,33,11.0,12.0,76,0.00,,,0.00,VWS V14.01,2013-09-19 11:02:00,
2013-09-19 01:07:00,74.2,66.9,29.97,NNW,340,9.0,11.0,78,0.00,,,0.00,VWS V14.01,2013-09-19 11:07:00,
2013-09-19 01:12:00,74.1,67.2,29.97,NE,42,11.0,11.0,79,0.00,,,0.00,VWS V14.01,2013-09-19 11:12:00,
2013-09-19 01:18:00,74.0,66.7,29.97,NNE,30,15.0,16.0,78,0.00,,,0.00,VWS V14.01,2013-09-19 11:18:00,
2013-09-19 01:23:00,74.1,67.2,29.96,NNE,17,13.0,18.0,79,0.00,,,0.00,VWS V14.01,2013-09-19 11:23:00,
2013-09-19 01:28:00,74.0,67.8,29.97,NE,42,5.0,7.0,81,0.00,,,0.00,VWS V14.01,2013-09-19 11:28:00,
2013-09-19 01:33:00,73.8,68.3,29.97,NNE,13,8.0,12.0,83,0.00,,,0.00,VWS V14.01,2013-09-19 11:33:00,
2013-09-19 01:38:00,73.6,68.1,29.96,NNE,20,12.0,16.0,83,0.00,,,0.00,VWS V14.01,2013-09-19 11:38:00,
2013-09-19 01:43:00,73.5,68.4,29.96,NNE,31,14.0,14.0,84,0.00,,,0.00,VWS V14.01,2013-09-19 11:43:00,
2013-09-19 01:48:00,73.5,68.4,29.96,ENE,60,7.0,8.0,84,0.00,,,0.00,VWS V14.01,2013-09-19 11:48:00,
2013-09-19 01:54:00,73.3,68.2,29.96,NNE,22,7.0,13.0,84,0.00,,,0.00,VWS V14.01,2013-09-19 11:54:00,
2013-09-19 01:59:00,73.4,68.3,29.96,NNW,347,8.0,15.0,84,0.00,,,0.00,VWS V14.01,2013-09-19 11:59:00,
2013-09-19 02:04:00,73.3,68.2,29.96,NNE,23,7.0,7.0,84,0.00,,,0.00,VWS V14.01,2013-09-19 12:04:00,
2013-09-19 02:09:00,73.3,68.5,29.96,NNE,14,8.0,9.0,85,0.00,,,0.00,VWS V14.01,2013-09-19 12:09:00,
2013-09-19 02:14:00,73.4,68.6,29.96,NNE,12,8.0,14.0,85,0.00,,,0.00,VWS V14.01,2013-09-19 12:14:00,
2013-09-19 02:19:00,73.4,68.3,29.96,North,9,9.0,9.0,84,0.00,,,0.00,VWS V14.01,2013-09-19 12:19:00,
2013-09-19 02:24:00,73.3,68.2,29.95,NNW,341,6.0,6.0,84,0.00,,,0.00,VWS V14.01,2013-09-19 12:24:00,
2013-09-19 02:29:00,73.2,67.7,29.95,North,5,8.0,8.0,83,0.00,,,0.00,VWS V14.01,2013-09-19 12:29:00,
2013-09-19 02:34:00,73.2,67.7,29.95,NNE,31,6.0,10.0,83,0.00,,,0.00,VWS V14.01,2013-09-19 12:34:00,
2013-09-19 02:39:00,73.4,67.6,29.95,NNE,31,10.0,11.0,82,0.00,,,0.00,VWS V14.01,2013-09-19 12:39:00,
2013-09-19 02:44:00,73.5,68.0,29.96,NE,40,13.0,13.0,83,0.00,,,0.00,VWS V14.01,2013-09-19 12:44:00,
2013-09-19 02:49:00,73.4,67.9,29.95,NE,39,8.0,12.0,83,0.00,,,0.00,VWS V14.01,2013-09-19 12:49:00,
2013-09-19 02:54:00,73.5,68.0,29.95,NE,48,8.0,9.0,83,0.00,,,0.00,VWS V14.01,2013-09-19 12:54:00,
2013-09-19 02:59:00,73.4,67.9,29.95,NNE,20,4.0,5.0,83,0.00,,,0.00,VWS V14.01,2013-09-19 12:59:00,
2013-09-19 03:05:00,73.3,67.8,29.95,NE,50,7.0,9.0,83,0.00,,,0.00,VWS V14.01,2013-09-19 13:05:00,
2013-09-19 03:10:00,73.2,68.1,29.95,ENE,60,6.0,10.0,84,0.00,,,0.00,VWS V14.01,2013-09-19 13:10:00,
2013-09-19 03:15:00,73.3,68.2,29.95,North,11,5.0,7.0,84,0.00,,,0.00,VWS V14.01,2013-09-19 13:15:00,
2013-09-19 03:20:00,73.3,68.2,29.95,NNE,24,5.0,7.0,84,0.00,,,0.00,VWS V14.01,2013-09-19 13:20:00,
2013-09-19 03:25:00,73.3,68.2,29.95,NNE,20,7.0,7.0,84,0.00,,,0.00,VWS V14.01,2013-09-19 13:25:00,
2013-09-19 03:30:00,73.3,68.2,29.95,NE,45,6.0,6.0,84,0.00,,,0.00,VWS V14.01,2013-09-19 13:30:00,
2013-09-19 03:35:00,73.3,68.2,29.95,NNE,12,7.0,10.0,84,0.00,,,0.00,VWS V14.01,2013-09-19 13:35:00,
2013-09-19 03:40:00,73.3,68.2,29.94,North,356,10.0,12.0,84,0.00,,,0.00,VWS V14.01,2013-09-19 13:40:00,
2013-09-19 03:46:00,73.2,68.4,29.94,North,9,7.0,8.0,85,0.00,,,0.00,VWS V14.01,2013-09-19 13:46:00,
2013-09-19 03:51:00,73.3,68.5,29.94,NE,38,3.0,3.0,85,0.00,,,0.00,VWS V14.01,2013-09-19 13:51:00,
2013-09-19 03:56:00,73.4,68.6,29.95,NNE,13,9.0,10.0,85,0.00,,,0.00,VWS V14.01,2013-09-19 13:56:00,
2013-09-19 04:01:00,73.4,68.6,29.95,NNW,329,6.0,6.0,85,0.00,,,0.00,VWS V14.01,2013-09-19 14:01:00,
2013-09-19 04:06:00,73.3,68.5,29.95,NNE,18,3.0,3.0,85,0.00,,,0.00,VWS V14.01,2013-09-19 14:06:00,
2013-09-19 04:11:00,73.1,68.3,29.95,NE,35,3.0,4.0,85,0.00,,,0.00,VWS V14.01,2013-09-19 14:11:00,
2013-09-19 04:16:00,73.1,68.3,29.95,NNE,23,13.0,13.0,85,0.00,,,0.00,VWS V14.01,2013-09-19 14:16:00,
2013-09-19 04:21:00,73.2,68.4,29.95,North,351,12.0,14.0,85,0.00,,,0.00,VWS V14.01,2013-09-19 14:21:00,
2013-09-19 04:27:00,73.2,68.1,29.94,NNE,27,4.0,4.0,84,0.00,,,0.00,VWS V14.01,2013-09-19 14:27:00,
2013-09-19 04:32:00,73.1,68.3,29.95,NNE,19,6.0,6.0,85,0.00,,,0.00,VWS V14.01,2013-09-19 14:32:00,
2013-09-19 04:37:00,73.1,68.0,29.94,NNE,29,10.0,10.0,84,0.00,,,0.00,VWS V14.01,2013-09-19 14:37:00,
2013-09-19 04:42:00,73.2,68.4,29.94,NW,317,3.0,5.0,85,0.00,,,0.00,VWS V14.01,2013-09-19 14:42:00,
2013-09-19 04:47:00,73.3,68.5,29.94,NE,47,8.0,8.0,85,0.00,,,0.00,VWS V14.01,2013-09-19 14:47:00,
2013-09-19 04:52:00,73.3,68.5,29.94,NNE,16,4.0,5.0,85,0.00,,,0.00,VWS V14.01,2013-09-19 14:52:00,
2013-09-19 04:57:00,73.2,68.4,29.94,North,357,6.0,6.0,85,0.00,,,0.00,VWS V14.01,2013-09-19 14:57:00,
2013-09-19 05:02:00,73.2,68.4,29.94,NNE,13,6.0,6.0,85,0.00,,,0.00,VWS V14.01,2013-09-19 15:02:00,
2013-09-19 05:07:00,73.1,68.7,29.95,NE,37,2.0,4.0,86,0.00,,,0.00,VWS V14.01,2013-09-19 15:07:00,
2013-09-19 05:13:00,73.1,68.7,29.95,NNE,29,6.0,6.0,86,0.00,,,0.00,VWS V14.01,2013-09-19 15:13:00,
2013-09-19 05:18:00,73.2,68.8,29.95,ENE,77,7.0,8.0,86,0.00,,,0.00,VWS V14.01,2013-09-19 15:18:00,
2013-09-19 05:23:00,73.2,68.8,29.95,NE,41,6.0,6.0,86,0.00,,,0.00,VWS V14.01,2013-09-19 15:23:00,
2013-09-19 05:28:00,73.3,68.9,29.95,NNE,21,5.0,6.0,86,0.00,,,0.00,VWS V14.01,2013-09-19 15:28:00,
2013-09-19 05:33:00,73.3,68.9,29.95,North,9,7.0,7.0,86,0.00,,,0.00,VWS V14.01,2013-09-19 15:33:00,
2013-09-19 05:38:00,73.3,68.9,29.96,NNE,27,5.0,5.0,86,0.00,,,0.00,VWS V14.01,2013-09-19 15:38:00,
2013-09-19 05:43:00,73.3,68.9,29.96,NNE,20,7.0,10.0,86,0.00,,,0.00,VWS V14.01,2013-09-19 15:43:00,
2013-09-19 05:48:00,73.3,68.5,29.96,NNE,28,4.0,5.0,85,0.00,,,0.00,VWS V14.01,2013-09-19 15:48:00,
2013-09-19 05:53:00,73.4,68.6,29.96,NE,41,6.0,7.0,85,0.00,,,0.00,VWS V14.01,2013-09-19 15:53:00,
2013-09-19 05:58:00,73.5,68.7,29.97,NE,44,4.0,4.0,85,0.00,,,0.00,VWS V14.01,2013-09-19 15:58:00,
2013-09-19 06:03:00,73.5,68.7,29.97,ENE,64,7.0,7.0,85,0.00,,,0.00,VWS V14.01,2013-09-19 16:03:00,
2013-09-19 06:08:00,73.5,68.7,29.97,NE,40,5.0,5.0,85,0.00,,,0.00,VWS V14.01,2013-09-19 16:08:00,
2013-09-19 06:13:00,73.4,68.6,29.97,NE,54,3.0,3.0,85,0.00,,,0.00,VWS V14.01,2013-09-19 16:13:00,
2013-09-19 06:19:00,73.5,68.7,29.97,NNE,28,6.0,6.0,85,0.00,,,0.00,VWS V14.01,2013-09-19 16:19:00,
2013-09-19 06:24:00,73.5,68.7,29.97,NE,44,4.0,5.0,85,0.00,,,0.00,VWS V14.01,2013-09-19 16:24:00,
2013-09-19 06:29:00,73.5,68.7,29.97,NE,38,3.0,5.0,85,0.00,,,0.00,VWS V14.01,2013-09-19 16:29:00,
2013-09-19 06:34:00,73.6,68.8,29.97,ENE,72,4.0,4.0,85,0.00,,,0.00,VWS V14.01,2013-09-19 16:34:00,
2013-09-19 06:39:00,73.9,69.1,29.98,NE,42,4.0,4.0,85,0.00,,,0.00,VWS V14.01,2013-09-19 16:39:00,
2013-09-19 06:44:00,74.4,69.3,29.98,ENE,71,4.0,4.0,84,0.00,,,0.00,VWS V14.01,2013-09-19 16:44:00,
2013-09-19 06:49:00,74.7,69.2,29.98,ENE,59,3.0,5.0,83,0.00,,,0.00,VWS V14.01,2013-09-19 16:49:00,
2013-09-19 06:54:00,74.9,69.0,29.98,NE,36,7.0,8.0,82,0.00,,,0.00,VWS V14.01,2013-09-19 16:54:00,
2013-09-19 07:00:00,75.2,69.3,29.99,NE,39,8.0,8.0,82,0.00,,,0.00,VWS V14.01,2013-09-19 17:00:00,
2013-09-19 07:05:00,75.3,69.4,29.99,NNE,29,6.0,6.0,82,0.00,,,0.00,VWS V14.01,2013-09-19 17:05:00,
2013-09-19 07:10:00,75.4,69.2,29.99,NNE,28,9.0,9.0,81,0.00,,,0.00,VWS V14.01,2013-09-19 17:10:00,
2013-09-19 07:15:00,75.3,69.1,29.99,ENE,58,4.0,8.0,81,0.00,,,0.00,VWS V14.01,2013-09-19 17:15:00,
2013-09-19 07:20:00,74.9,69.0,30.00,NE,53,4.0,4.0,82,0.00,,,0.00,VWS V14.01,2013-09-19 17:20:00,
2013-09-19 07:25:00,74.7,69.2,30.00,ESE,103,12.0,15.0,83,0.00,,,0.00,VWS V14.01,2013-09-19 17:25:00,
2013-09-19 07:30:00,74.5,69.0,30.00,NE,52,5.0,6.0,83,0.00,,,0.00,VWS V14.01,2013-09-19 17:30:00,
2013-09-19 07:35:00,74.7,69.2,30.00,ENE,57,5.0,6.0,83,0.00,,,0.00,VWS V14.01,2013-09-19 17:35:00,
2013-09-19 07:40:00,74.6,69.1,30.00,North,4,6.0,6.0,83,0.00,,,0.00,VWS V14.01,2013-09-19 17:40:00,
2013-09-19 07:45:00,74.8,68.9,30.01,NE,45,6.0,9.0,82,0.00,,,0.00,VWS V14.01,2013-09-19 17:45:00,
2013-09-19 07:51:00,74.9,69.4,30.01,NE,38,5.0,8.0,83,0.00,,,0.00,VWS V14.01,2013-09-19 17:51:00,
2013-09-19 07:56:00,74.9,69.0,30.01,ENE,77,4.0,4.0,82,0.00,,,0.00,VWS V14.01,2013-09-19 17:56:00,
2013-09-19 08:01:00,75.1,68.9,30.01,NE,34,6.0,8.0,81,0.00,,,0.00,VWS V14.01,2013-09-19 18:01:00,
2013-09-19 08:06:00,75.3,68.0,30.01,NE,46,6.0,6.0,78,0.00,,,0.00,VWS V14.01,2013-09-19 18:06:00,
2013-09-19 08:11:00,75.3,67.6,30.01,ENE,57,4.0,4.0,77,0.00,,,0.00,VWS V14.01,2013-09-19 18:11:00,
2013-09-19 08:16:00,75.5,68.2,30.01,NE,38,8.0,9.0,78,0.00,,,0.00,VWS V14.01,2013-09-19 18:16:00,
2013-09-19 08:21:00,75.6,67.9,30.02,NE,39,4.0,6.0,77,0.00,,,0.00,VWS V14.01,2013-09-19 18:21:00,
2013-09-19 08:26:00,75.7,67.6,30.01,NNE,18,2.0,6.0,76,0.00,,,0.00,VWS V14.01,2013-09-19 18:26:00,
2013-09-19 08:31:00,76.1,68.4,30.01,NNE,21,5.0,5.0,77,0.00,,,0.00,VWS V14.01,2013-09-19 18:31:00,
2013-09-19 08:37:00,76.5,68.4,30.02,ENE,76,5.0,6.0,76,0.00,,,0.00,VWS V14.01,2013-09-19 18:37:00,
2013-09-19 08:42:00,77.4,68.9,30.02,North,360,10.0,12.0,75,0.00,,,0.00,VWS V14.01,2013-09-19 18:42:00,
2013-09-19 08:47:00,77.2,69.1,30.02,NE,53,11.0,11.0,76,0.00,,,0.00,VWS V14.01,2013-09-19 18:47:00,
2013-09-19 08:52:00,77.0,69.2,30.02,NE,38,6.0,8.0,77,0.00,,,0.00,VWS V14.01,2013-09-19 18:52:00,
2013-09-19 08:57:00,77.6,70.2,30.02,NE,48,5.0,9.0,78,0.00,,,0.00,VWS V14.01,2013-09-19 18:57:00,
2013-09-19 09:02:00,77.9,70.1,30.02,NE,48,9.0,9.0,77,0.00,,,0.00,VWS V14.01,2013-09-19 19:02:00,
2013-09-19 09:07:00,77.5,70.1,30.02,NE,50,8.0,11.0,78,0.00,,,0.00,VWS V14.01,2013-09-19 19:07:00,
2013-09-19 09:12:00,77.6,70.6,30.02,NE,56,10.0,10.0,79,0.00,,,0.00,VWS V14.01,2013-09-19 19:12:00,
2013-09-19 09:18:00,77.7,68.8,30.02,East,92,7.0,8.0,74,0.00,,,0.00,VWS V14.01,2013-09-19 19:18:00,
2013-09-19 09:23:00,78.6,69.2,30.02,ENE,73,4.0,7.0,73,0.00,,,0.00,VWS V14.01,2013-09-19 19:23:00,
2013-09-19 09:28:00,78.3,68.9,30.02,ENE,59,9.0,9.0,73,0.00,,,0.00,VWS V14.01,2013-09-19 19:28:00,
2013-09-19 09:33:00,77.9,69.3,30.02,ENE,69,8.0,13.0,75,0.00,,,0.00,VWS V14.01,2013-09-19 19:33:00,
2013-09-19 09:38:00,78.5,69.9,30.02,NE,42,9.0,12.0,75,0.00,,,0.00,VWS V14.01,2013-09-19 19:38:00,
2013-09-19 09:43:00,78.0,70.2,30.03,East,97,14.0,16.0,77,0.00,,,0.00,VWS V14.01,2013-09-19 19:43:00,
2013-09-19 09:48:00,78.2,69.2,30.02,East,85,8.0,11.0,74,0.00,,,0.00,VWS V14.01,2013-09-19 19:48:00,
2013-09-19 09:53:00,78.6,70.4,30.03,ENE,70,12.0,12.0,76,0.00,,,0.00,VWS V14.01,2013-09-19 19:53:00,
2013-09-19 09:58:00,78.5,69.5,30.02,ENE,61,12.0,13.0,74,0.00,,,0.00,VWS V14.01,2013-09-19 19:58:00,
2013-09-19 10:04:00,78.3,69.3,30.03,ENE,57,11.0,11.0,74,0.00,,,0.00,VWS V14.01,2013-09-19 20:04:00,
2013-09-19 10:09:00,78.3,69.7,30.02,East,92,13.0,16.0,75,0.00,,,0.00,VWS V14.01,2013-09-19 20:09:00,
2013-09-19 10:14:00,78.8,69.8,30.03,NE,43,9.0,12.0,74,0.00,,,0.00,VWS V14.01,2013-09-19 20:14:00,
2013-09-19 10:19:00,79.3,68.7,30.03,ENE,78,14.0,14.0,70,0.00,,,0.00,VWS V14.01,2013-09-19 20:19:00,
2013-09-19 10:24:00,78.8,68.6,30.03,ENE,73,14.0,16.0,71,0.00,,,0.00,VWS V14.01,2013-09-19 20:24:00,
2013-09-19 10:29:00,78.4,68.6,30.03,East,95,14.0,17.0,72,0.00,,,0.00,VWS V14.01,2013-09-19 20:29:00,
2013-09-19 10:34:00,78.8,69.0,30.03,NE,41,11.0,16.0,72,0.00,,,0.00,VWS V14.01,2013-09-19 20:34:00,
2013-09-19 10:39:00,79.1,68.9,30.02,ESE,105,18.0,18.0,71,0.00,,,0.00,VWS V14.01,2013-09-19 20:39:00,
2013-09-19 10:44:00,79.6,69.4,30.02,ENE,64,9.0,11.0,71,0.00,,,0.00,VWS V14.01,2013-09-19 20:44:00,
2013-09-19 10:50:00,79.4,69.6,30.02,ENE,61,9.0,14.0,72,0.00,,,0.00,VWS V14.01,2013-09-19 20:50:00,
2013-09-19 10:55:00,79.4,69.6,30.02,ENE,64,17.0,17.0,72,0.00,,,0.00,VWS V14.01,2013-09-19 20:55:00,
2013-09-19 11:00:00,78.8,69.4,30.02,East,79,9.0,12.0,73,0.00,,,0.00,VWS V14.01,2013-09-19 21:00:00,
2013-09-19 11:05:00,79.2,69.8,30.02,ENE,63,15.0,16.0,73,0.00,,,0.00,VWS V14.01,2013-09-19 21:05:00,
2013-09-19 11:10:00,79.1,70.1,30.02,ESE,109,12.0,13.0,74,0.00,,,0.00,VWS V14.01,2013-09-19 21:10:00,
2013-09-19 11:15:00,79.3,70.3,30.02,NE,52,15.0,15.0,74,0.00,,,0.00,VWS V14.01,2013-09-19 21:15:00,
2013-09-19 11:20:00,78.8,67.8,30.01,East,88,17.0,17.0,69,0.00,,,0.00,VWS V14.01,2013-09-19 21:20:00,
2013-09-19 11:25:00,79.0,69.2,30.01,ENE,76,10.0,14.0,72,0.00,,,0.00,VWS V14.01,2013-09-19 21:25:00,
2013-09-19 11:30:00,79.3,70.3,30.01,NE,52,17.0,17.0,74,0.00,,,0.00,VWS V14.01,2013-09-19 21:30:00,
2013-09-19 11:35:00,79.2,70.2,30.01,ENE,68,9.0,14.0,74,0.00,,,0.00,VWS V14.01,2013-09-19 21:35:00,
2013-09-19 11:40:00,79.2,70.2,30.01,ESE,105,13.0,14.0,74,0.00,,,0.00,VWS V14.01,2013-09-19 21:40:00,
2013-09-19 11:45:00,79.4,70.0,30.01,East,80,8.0,11.0,73,0.00,,,0.00,VWS V14.01,2013-09-19 21:45:00,
2013-09-19 11:51:00,79.6,71.0,30.01,ENE,75,11.0,15.0,75,0.00,,,0.00,VWS V14.01,2013-09-19 21:51:00,
2013-09-19 11:56:00,79.7,70.3,30.01,ENE,70,13.0,15.0,73,0.00,,,0.00,VWS V14.01,2013-09-19 21:56:00,
2013-09-19 12:01:00,79.0,70.0,30.00,NE,54,10.0,12.0,74,0.00,,,0.00,VWS V14.01,2013-09-19 22:01:00,
2013-09-19 12:07:00,78.6,69.6,30.00,ENE,75,14.0,16.0,74,0.00,,,0.00,VWS V14.01,2013-09-19 22:07:00,
2013-09-19 12:12:00,78.2,70.0,30.00,NE,54,12.0,14.0,76,0.00,,,0.00,VWS V14.01,2013-09-19 22:12:00,
2013-09-19 12:17:00,77.9,70.1,30.00,ENE,70,18.0,18.0,77,0.00,,,0.00,VWS V14.01,2013-09-19 22:17:00,
2013-09-19 12:22:00,77.6,70.2,30.00,ENE,78,12.0,12.0,78,0.00,,,0.00,VWS V14.01,2013-09-19 22:22:00,
2013-09-19 12:27:00,77.5,70.1,30.00,ENE,76,10.0,14.0,78,0.00,,,0.00,VWS V14.01,2013-09-19 22:27:00,
2013-09-19 12:32:00,77.5,70.1,30.00,ESE,102,9.0,13.0,78,0.00,,,0.00,VWS V14.01,2013-09-19 22:32:00,
2013-09-19 12:37:00,77.9,70.5,30.00,ENE,61,11.0,13.0,78,0.00,,,0.00,VWS V14.01,2013-09-19 22:37:00,
2013-09-19 12:42:00,77.7,70.3,30.00,ENE,77,12.0,13.0,78,0.00,,,0.00,VWS V14.01,2013-09-19 22:42:00,
2013-09-19 12:48:00,78.3,69.3,30.00,ENE,74,17.0,17.0,74,0.00,,,0.00,VWS V14.01,2013-09-19 22:48:00,
2013-09-19 12:53:00,77.5,69.0,30.00,East,97,20.0,20.0,75,0.00,,,0.00,VWS V14.01,2013-09-19 22:53:00,
2013-09-19 12:58:00,77.4,69.2,29.99,ENE,75,6.0,6.0,76,0.00,,,0.00,VWS V14.01,2013-09-19 22:58:00,
2013-09-19 13:03:00,77.4,69.6,29.99,NE,40,9.0,15.0,77,0.00,,,0.00,VWS V14.01,2013-09-19 23:03:00,
2013-09-19 13:08:00,77.4,70.4,29.99,NE,56,6.0,12.0,79,0.00,,,0.00,VWS V14.01,2013-09-19 23:08:00,
2013-09-19 13:13:00,77.7,69.9,29.99,ENE,61,12.0,14.0,77,0.00,,,0.00,VWS V14.01,2013-09-19 23:13:00,
2013-09-19 13:18:00,77.7,69.9,29.99,ENE,67,14.0,14.0,77,0.00,,,0.00,VWS V14.01,2013-09-19 23:18:00,
2013-09-19 13:23:00,77.7,69.5,29.99,NE,40,11.0,14.0,76,0.00,,,0.00,VWS V14.01,2013-09-19 23:23:00,
2013-09-19 13:28:00,77.4,69.6,29.99,NE,45,12.0,16.0,77,0.00,,,0.00,VWS V14.01,2013-09-19 23:28:00,
2013-09-19 13:34:00,76.9,69.2,29.99,ENE,78,12.0,17.0,77,0.00,,,0.00,VWS V14.01,2013-09-19 23:34:00,
2013-09-19 13:39:00,77.2,70.2,29.99,NE,35,8.0,11.0,79,0.00,,,0.00,VWS V14.01,2013-09-19 23:39:00,
2013-09-19 13:44:00,77.7,69.9,29.99,NE,50,16.0,16.0,77,0.00,,,0.00,VWS V14.01,2013-09-19 23:44:00,
2013-09-19 13:49:00,77.7,69.5,29.98,ENE,67,9.0,9.0,76,0.00,,,0.00,VWS V14.01,2013-09-19 23:49:00,
2013-09-19 13:54:00,77.4,69.6,29.98,ENE,57,15.0,15.0,77,0.00,,,0.00,VWS V14.01,2013-09-19 23:54:00,
2013-09-19 13:59:00,77.0,69.6,29.98,NE,56,11.0,11.0,78,0.00,,,0.00,VWS V14.01,2013-09-19 23:59:00,
2013-09-19 14:04:00,77.5,70.1,29.98,East,96,16.0,22.0,78,0.00,,,0.00,VWS V14.01,2013-09-20 00:04:00,
2013-09-19 14:09:00,77.3,70.3,29.98,ENE,61,14.0,14.0,79,0.00,,,0.00,VWS V14.01,2013-09-20 00:09:00,
2013-09-19 14:14:00,77.6,70.2,29.98,NE,55,9.0,9.0,78,0.00,,,0.00,VWS V14.01,2013-09-20 00:14:00,
2013-09-19 14:19:00,77.4,70.4,29.98,ENE,71,13.0,14.0,79,0.00,,,0.00,VWS V14.01,2013-09-20 00:19:00,
2013-09-19 14:25:00,77.3,70.3,29.98,NE,38,7.0,11.0,79,0.00,,,0.00,VWS V14.01,2013-09-20 00:25:00,
2013-09-19 14:30:00,77.4,70.4,29.98,ENE,66,7.0,14.0,79,0.00,,,0.00,VWS V14.01,2013-09-20 00:30:00,
2013-09-19 14:35:00,77.3,70.7,29.97,East,84,12.0,15.0,80,0.00,,,0.00,VWS V14.01,2013-09-20 00:35:00,
2013-09-19 14:40:00,77.0,70.4,29.97,ENE,74,8.0,11.0,80,0.00,,,0.00,VWS V14.01,2013-09-20 00:40:00,
2013-09-19 14:45:00,76.6,70.3,29.97,NE,50,7.0,9.0,81,0.00,,,0.00,VWS V14.01,2013-09-20 00:45:00,
2013-09-19 14:50:00,76.9,70.6,29.97,ENE,72,13.0,13.0,81,0.00,,,0.00,VWS V14.01,2013-09-20 00:50:00,
2013-09-19 14:55:00,77.0,70.0,29.97,NNE,25,13.0,14.0,79,0.00,,,0.00,VWS V14.01,2013-09-20 00:55:00,
2013-09-19 15:00:00,76.9,69.9,29.97,NE,55,11.0,15.0,79,0.00,,,0.00,VWS V14.01,2013-09-20 01:00:00,
2013-09-19 15:05:00,77.1,70.5,29.97,ENE,66,12.0,12.0,80,0.00,,,0.00,VWS V14.01,2013-09-20 01:05:00,
2013-09-19 15:10:00,76.5,69.5,29.97,NE,47,7.0,7.0,79,0.00,,,0.00,VWS V14.01,2013-09-20 01:10:00,
2013-09-19 15:16:00,76.9,69.9,29.97,NE,42,10.0,11.0,79,0.00,,,0.00,VWS V14.01,2013-09-20 01:16:00,
2013-09-19 15:21:00,77.3,69.5,29.97,NNE,21,16.0,18.0,77,0.00,,,0.00,VWS V14.01,2013-09-20 01:21:00,
2013-09-19 15:26:00,77.2,69.4,29.97,NNE,33,11.0,11.0,77,0.00,,,0.00,VWS V14.01,2013-09-20 01:26:00,
2013-09-19 15:31:00,77.2,69.4,29.97,NNE,27,16.0,16.0,77,0.00,,,0.00,VWS V14.01,2013-09-20 01:31:00,
2013-09-19 15:36:00,77.5,70.1,29.97,NE,45,10.0,10.0,78,0.00,,,0.00,VWS V14.01,2013-09-20 01:36:00,
2013-09-19 15:41:00,77.5,70.1,29.97,NE,50,16.0,16.0,78,0.00,,,0.00,VWS V14.01,2013-09-20 01:41:00,
2013-09-19 15:46:00,77.0,70.7,29.97,ESE,102,12.0,12.0,81,0.00,,,0.00,VWS V14.01,2013-09-20 01:46:00,
2013-09-19 15:51:00,76.8,70.9,29.97,ENE,65,13.0,15.0,82,0.00,,,0.00,VWS V14.01,2013-09-20 01:51:00,
2013-09-19 15:56:00,76.3,70.1,29.97,ESE,123,10.0,13.0,81,0.00,,,0.00,VWS V14.01,2013-09-20 01:56:00,
2013-09-19 16:01:00,76.4,70.1,29.97,ENE,58,7.0,11.0,81,0.00,,,0.00,VWS V14.01,2013-09-20 02:01:00,
2013-09-19 16:07:00,76.4,69.8,29.97,North,3,11.0,13.0,80,0.00,,,0.00,VWS V14.01,2013-09-20 02:07:00,
2013-09-19 16:12:00,76.3,69.7,29.97,East,82,10.0,16.0,80,0.00,,,0.00,VWS V14.01,2013-09-20 02:12:00,
2013-09-19 16:17:00,76.2,70.7,29.97,NE,45,10.0,12.0,83,0.00,,,0.00,VWS V14.01,2013-09-20 02:17:00,
2013-09-19 16:22:00,76.2,70.3,29.97,NNE,31,11.0,13.0,82,0.00,,,0.00,VWS V14.01,2013-09-20 02:22:00,
2013-09-19 16:27:00,75.8,69.9,29.98,ENE,59,6.0,10.0,82,0.00,,,0.00,VWS V14.01,2013-09-20 02:27:00,
2013-09-19 16:32:00,75.9,69.7,29.98,NE,37,8.0,11.0,81,0.00,,,0.00,VWS V14.01,2013-09-20 02:32:00,
2013-09-19 16:37:00,75.8,69.2,29.97,ENE,76,13.0,13.0,80,0.00,,,0.00,VWS V14.01,2013-09-20 02:37:00,
2013-09-19 16:42:00,75.8,69.6,29.98,NNE,23,13.0,13.0,81,0.00,,,0.00,VWS V14.01,2013-09-20 02:42:00,
2013-09-19 16:47:00,76.0,69.8,29.97,North,7,11.0,11.0,81,0.00,,,0.00,VWS V14.01,2013-09-20 02:47:00,
2013-09-19 16:53:00,76.1,69.8,29.97,NNE,26,8.0,14.0,81,0.00,,,0.00,VWS V14.01,2013-09-20 02:53:00,
2013-09-19 16:58:00,76.0,69.4,29.98,NE,50,9.0,10.0,80,0.00,,,0.00,VWS V14.01,2013-09-20 02:58:00,
2013-09-19 17:03:00,75.9,69.7,29.98,NNE,18,13.0,13.0,81,0.00,,,0.00,VWS V14.01,2013-09-20 03:03:00,
2013-09-19 17:08:00,75.9,69.7,29.97,NE,46,11.0,14.0,81,0.00,,,0.00,VWS V14.01,2013-09-20 03:08:00,
2013-09-19 17:13:00,75.9,69.3,29.98,NE,48,14.0,15.0,80,0.00,,,0.00,VWS V14.01,2013-09-20 03:13:00,
2013-09-19 17:18:00,75.9,69.3,29.98,ENE,61,8.0,9.0,80,0.00,,,0.00,VWS V14.01,2013-09-20 03:18:00,
2013-09-19 17:23:00,75.9,69.3,29.98,ENE,61,14.0,14.0,80,0.00,,,0.00,VWS V14.01,2013-09-20 03:23:00,
2013-09-19 17:28:00,75.9,69.3,29.98,ENE,59,5.0,14.0,80,0.00,,,0.00,VWS V14.01,2013-09-20 03:28:00,
2013-09-19 17:33:00,75.9,68.9,29.98,ENE,63,7.0,11.0,79,0.00,,,0.00,VWS V14.01,2013-09-20 03:33:00,
2013-09-19 17:38:00,76.0,68.3,29.98,NNE,15,8.0,12.0,77,0.00,,,0.00,VWS V14.01,2013-09-20 03:38:00,
2013-09-19 17:44:00,76.1,67.6,29.98,North,360,11.0,11.0,75,0.00,,,0.00,VWS V14.01,2013-09-20 03:44:00,
2013-09-19 17:49:00,76.2,66.9,29.97,NE,39,6.0,7.0,73,0.00,,,0.00,VWS V14.01,2013-09-20 03:49:00,
2013-09-19 17:54:00,76.3,67.4,29.97,North,6,14.0,16.0,74,0.00,,,0.00,VWS V14.01,2013-09-20 03:54:00,
2013-09-19 17:59:00,76.2,67.7,29.98,NE,41,8.0,9.0,75,0.00,,,0.00,VWS V14.01,2013-09-20 03:59:00,
2013-09-19 18:01:00,76.1,67.6,29.98,North,5,11.0,18.0,75,0.00,,,0.00,VWS V14.01,2013-09-20 04:01:00,
2013-09-19 18:02:00,76.1,67.6,29.98,NNW,335,16.0,22.0,75,0.00,,,0.00,VWS V14.01,2013-09-20 04:02:00,
2013-09-19 18:07:00,76.0,67.5,29.98,ENE,68,9.0,15.0,75,0.00,,,0.00,VWS V14.01,2013-09-20 04:07:00,
2013-09-19 18:12:00,75.9,67.4,29.98,NE,45,12.0,15.0,75,0.00,,,0.00,VWS V14.01,2013-09-20 04:12:00,
2013-09-19 18:17:00,75.9,67.8,29.99,NE,46,14.0,14.0,76,0.00,,,0.00,VWS V14.01,2013-09-20 04:17:00,
2013-09-19 18:23:00,75.7,67.6,29.98,NE,38,11.0,11.0,76,0.00,,,0.00,VWS V14.01,2013-09-20 04:23:00,
2013-09-19 18:28:00,75.7,68.0,29.99,NNE,14,10.0,12.0,77,0.00,,,0.00,VWS V14.01,2013-09-20 04:28:00,
2013-09-19 18:33:00,75.6,67.9,29.98,ENE,70,9.0,9.0,77,0.00,,,0.00,VWS V14.01,2013-09-20 04:33:00,
2013-09-19 18:38:00,75.6,67.9,29.99,NNW,335,11.0,11.0,77,0.00,,,0.00,VWS V14.01,2013-09-20 04:38:00,
2013-09-19 18:43:00,75.6,67.9,29.98,NNW,343,20.0,20.0,77,0.00,,,0.00,VWS V14.01,2013-09-20 04:43:00,
2013-09-19 18:49:00,75.6,67.9,29.99,NNW,341,8.0,8.0,77,0.00,,,0.00,VWS V14.01,2013-09-20 04:49:00,
2013-09-19 18:54:00,75.6,68.3,29.99,NE,47,10.0,10.0,78,0.00,,,0.00,VWS V14.01,2013-09-20 04:54:00,
2013-09-19 18:59:00,75.5,68.2,29.99,WNW,293,6.0,6.0,78,0.00,,,0.00,VWS V14.01,2013-09-20 04:59:00,
2013-09-19 19:04:00,75.5,67.8,29.99,North,3,8.0,11.0,77,0.00,,,0.00,VWS V14.01,2013-09-20 05:04:00,
2013-09-19 19:09:00,75.5,68.2,29.99,North,7,13.0,16.0,78,0.00,,,0.00,VWS V14.01,2013-09-20 05:09:00,
2013-09-19 19:14:00,75.5,68.5,30.00,NNW,332,3.0,8.0,79,0.00,,,0.00,VWS V14.01,2013-09-20 05:14:00,
2013-09-19 19:20:00,75.4,68.8,30.00,NNE,19,7.0,8.0,80,0.00,,,0.00,VWS V14.01,2013-09-20 05:20:00,
2013-09-19 19:25:00,75.3,68.7,30.00,NNE,14,6.0,7.0,80,0.00,,,0.00,VWS V14.01,2013-09-20 05:25:00,
2013-09-19 19:30:00,75.2,69.3,30.00,NE,56,4.0,11.0,82,0.00,,,0.00,VWS V14.01,2013-09-20 05:30:00,
2013-09-19 19:35:00,75.1,69.2,30.00,ENE,66,8.0,8.0,82,0.00,,,0.00,VWS V14.01,2013-09-20 05:35:00,
2013-09-19 19:40:00,75.0,69.5,30.00,NE,35,10.0,10.0,83,0.00,,,0.00,VWS V14.01,2013-09-20 05:40:00,
2013-09-19 19:45:00,74.9,69.4,30.01,NE,52,7.0,11.0,83,0.00,,,0.00,VWS V14.01,2013-09-20 05:45:00,
2013-09-19 19:50:00,74.8,69.3,30.01,NNE,33,10.0,10.0,83,0.00,,,0.00,VWS V14.01,2013-09-20 05:50:00,
2013-09-19 19:55:00,74.8,69.3,30.01,North,9,5.0,8.0,83,0.00,,,0.00,VWS V14.01,2013-09-20 05:55:00,
2013-09-19 20:00:00,74.8,69.3,30.01,NNE,26,11.0,11.0,83,0.00,,,0.00,VWS V14.01,2013-09-20 06:00:00,
2013-09-19 20:05:00,74.8,68.9,30.01,NNE,25,9.0,9.0,82,0.00,,,0.00,VWS V14.01,2013-09-20 06:05:00,
2013-09-19 20:10:00,74.9,69.0,30.01,NNE,18,8.0,9.0,82,0.00,,,0.00,VWS V14.01,2013-09-20 06:10:00,
2013-09-19 20:16:00,74.9,68.7,30.01,WNW,300,16.0,18.0,81,0.00,,,0.00,VWS V14.01,2013-09-20 06:16:00,
2013-09-19 20:21:00,75.0,68.8,30.01,North,357,13.0,14.0,81,0.00,,,0.00,VWS V14.01,2013-09-20 06:21:00,
2013-09-19 20:26:00,75.0,69.1,30.02,NNE,19,14.0,18.0,82,0.00,,,0.00,VWS V14.01,2013-09-20 06:26:00,
2013-09-19 20:31:00,75.1,68.9,30.02,ENE,63,2.0,5.0,81,0.00,,,0.00,VWS V14.01,2013-09-20 06:31:00,
2013-09-19 20:36:00,75.1,68.9,30.02,NE,54,5.0,9.0,81,0.00,,,0.00,VWS V14.01,2013-09-20 06:36:00,
2013-09-19 20:41:00,75.0,69.1,30.02,NNE,20,13.0,13.0,82,0.00,,,0.00,VWS V14.01,2013-09-20 06:41:00,
2013-09-19 20:46:00,74.9,69.0,30.02,NNW,338,7.0,11.0,82,0.00,,,0.00,VWS V14.01,2013-09-20 06:46:00,
2013-09-19 20:51:00,74.9,69.0,30.03,NE,47,7.0,7.0,82,0.00,,,0.00,VWS V14.01,2013-09-20 06:51:00,
2013-09-19 20:57:00,74.8,68.9,30.03,NNE,21,8.0,8.0,82,0.00,,,0.00,VWS V14.01,2013-09-20 06:57:00,
2013-09-19 21:02:00,74.7,69.2,30.03,NNW,334,15.0,16.0,83,0.00,,,0.00,VWS V14.01,2013-09-20 07:02:00,
2013-09-19 21:07:00,74.7,69.2,30.03,NE,46,6.0,6.0,83,0.00,,,0.00,VWS V14.01,2013-09-20 07:07:00,
2013-09-19 21:12:00,74.6,69.4,30.03,NNW,348,10.0,13.0,84,0.00,,,0.00,VWS V14.01,2013-09-20 07:12:00,
2013-09-19 21:17:00,74.5,69.0,30.03,NNE,23,10.0,10.0,83,0.00,,,0.00,VWS V14.01,2013-09-20 07:17:00,
2013-09-19 21:22:00,74.5,69.0,30.03,NNE,14,13.0,14.0,83,0.00,,,0.00,VWS V14.01,2013-09-20 07:22:00,
2013-09-19 21:27:00,74.5,69.0,30.03,NNW,334,7.0,7.0,83,0.00,,,0.00,VWS V14.01,2013-09-20 07:27:00,
2013-09-19 21:32:00,74.4,68.6,30.03,NNE,21,12.0,12.0,82,0.00,,,0.00,VWS V14.01,2013-09-20 07:32:00,
2013-09-19 21:38:00,74.5,67.9,30.03,NNE,16,11.0,15.0,80,0.00,,,0.00,VWS V14.01,2013-09-20 07:38:00,
2013-09-19 21:43:00,74.7,67.8,30.03,NNE,14,10.0,13.0,79,0.00,,,0.00,VWS V14.01,2013-09-20 07:43:00,
2013-09-19 21:48:00,74.7,68.1,30.03,NNE,26,13.0,15.0,80,0.00,,,0.00,VWS V14.01,2013-09-20 07:48:00,
2013-09-19 21:53:00,74.8,68.6,30.03,NNW,347,7.0,7.0,81,0.00,,,0.00,VWS V14.01,2013-09-20 07:53:00,
2013-09-19 21:58:00,74.7,68.5,30.03,NNE,23,8.0,9.0,81,0.00,,,0.00,VWS V14.01,2013-09-20 07:58:00,
2013-09-19 22:03:00,74.6,69.1,30.04,NNE,14,8.0,11.0,83,0.00,,,0.00,VWS V14.01,2013-09-20 08:03:00,
2013-09-19 22:09:00,74.5,69.3,30.03,NNE,23,9.0,11.0,84,0.00,,,0.00,VWS V14.01,2013-09-20 08:09:00,
2013-09-19 22:14:00,74.3,69.2,30.03,NNE,19,3.0,8.0,84,0.00,,,0.00,VWS V14.01,2013-09-20 08:14:00,
2013-09-19 22:19:00,74.2,68.7,30.03,North,5,8.0,8.0,83,0.00,,,0.00,VWS V14.01,2013-09-20 08:19:00,
2013-09-19 22:24:00,74.3,68.8,30.03,NNE,33,11.0,13.0,83,0.00,,,0.00,VWS V14.01,2013-09-20 08:24:00,
2013-09-19 22:29:00,74.4,68.9,30.03,NNE,13,8.0,12.0,83,0.00,,,0.00,VWS V14.01,2013-09-20 08:29:00,
2013-09-19 22:34:00,74.3,68.8,30.03,NNE,14,17.0,17.0,83,0.00,,,0.00,VWS V14.01,2013-09-20 08:34:00,
2013-09-19 22:39:00,74.4,68.6,30.03,NNE,29,7.0,7.0,82,0.00,,,0.00,VWS V14.01,2013-09-20 08:39:00,
2013-09-19 22:44:00,74.3,68.4,30.03,NNE,23,6.0,8.0,82,0.00,,,0.00,VWS V14.01,2013-09-20 08:44:00,
2013-09-19 22:50:00,74.2,69.1,30.03,NE,39,13.0,13.0,84,0.00,,,0.00,VWS V14.01,2013-09-20 08:50:00,
2013-09-19 22:55:00,74.1,69.0,30.03,NE,38,8.0,11.0,84,0.00,,,0.00,VWS V14.01,2013-09-20 08:55:00,
2013-09-19 23:00:00,74.0,69.2,30.03,NNE,19,4.0,6.0,85,0.00,,,0.00,VWS V14.01,2013-09-20 09:00:00,
2013-09-19 23:05:00,74.0,69.2,30.03,NNE,21,10.0,12.0,85,0.00,,,0.00,VWS V14.01,2013-09-20 09:05:00,
2013-09-19 23:10:00,74.0,69.2,30.03,North,353,8.0,9.0,85,0.00,,,0.00,VWS V14.01,2013-09-20 09:10:00,
2013-09-19 23:15:00,74.1,69.3,30.03,NNE,31,6.0,7.0,85,0.00,,,0.00,VWS V14.01,2013-09-20 09:15:00,
2013-09-19 23:21:00,74.1,69.3,30.03,North,360,5.0,5.0,85,0.00,,,0.00,VWS V14.01,2013-09-20 09:21:00,
2013-09-19 23:26:00,74.0,69.2,30.03,North,9,5.0,5.0,85,0.00,,,0.00,VWS V14.01,2013-09-20 09:26:00,
2013-09-19 23:31:00,74.0,69.2,30.03,NNE,29,7.0,9.0,85,0.00,,,0.00,VWS V14.01,2013-09-20 09:31:00,
2013-09-19 23:36:00,74.0,69.2,30.03,NNE,22,10.0,10.0,85,0.00,,,0.00,VWS V14.01,2013-09-20 09:36:00,
2013-09-19 23:41:00,74.0,69.2,30.03,NE,36,13.0,14.0,85,0.00,,,0.00,VWS V14.01,2013-09-20 09:41:00,
2013-09-19 23:46:00,74.0,69.2,30.03,ENE,57,10.0,10.0,85,0.00,,,0.00,VWS V14.01,2013-09-20 09:46:00,
2013-09-19 23:51:00,73.9,69.1,30.02,NE,36,8.0,13.0,85,0.00,,,0.00,VWS V14.01,2013-09-20 09:51:00,
2013-09-19 23:56:00,73.9,69.1,30.02,NW,317,3.0,5.0,85,0.00,,,0.00,VWS V14.01,2013-09-20 09:56:00,